This demonstration page uses our WeatherBlox Daily Observations layout. Learn more.

Left ArrowRight Arrow

Hourly Observations for August 28, 2020

Temp ( °F °C ) Dew Point ( °F °C ) Humidity (%) Winds ( mph kmh ) Pressure ( in mb ) Visibility ( mi km ) Precip ( " mm )
12:54 am 00:54 Clear 74 23.3 66 18.9 76 76 SSE 7 11 29.74 1007 10 16.0934 0 0
1:54 am 01:54 Clear 75 23.9 67 19.4 76 76 S 7 11 29.73 1007 10 16.0934 0 0
2:54 am 02:54 Clear 72 22.2 66 18.9 82 82 S 5 7 29.73 1007 10 16.0934 0 0
3:54 am 03:54 Clear 71 21.7 66 18.9 84 84 S 7 11 29.73 1007 10 16.0934 0 0
4:54 am 04:54 Clear 71 21.7 66 18.9 84 84 SSE 7 11 29.74 1007 10 16.0934 0 0
5:54 am 05:54 Clear 71 21.7 67 19.4 87 87 SSW 5 7 29.77 1008 10 16.0934 0 0
6:54 am 06:54 Sunny 72 22.2 67 19.4 84 84 Calm 29.79 1009 9 14.48406 0 0
7:54 am 07:54 Sunny 73 22.8 68 20 84 84 Calm 29.79 1009 8 12.87472 0 0
8:54 am 08:54 Sunny 76 24.4 68 20 77 77 WSW 6 9 29.8 1009 9 14.48406 0 0
9:54 am 09:54 Sunny 81 27.2 69 20.6 67 67 Calm 29.79 1009 9 14.48406 0 0
10:54 am 10:54 Sunny 85 29.4 69 20.6 59 59 WSW 7 11 29.78 1009 9 14.48406 0 0
11:54 am 11:54 Sunny 89 31.7 67 19.4 48 48 WSW 9 15 29.77 1008 9 14.48406 0 0
12:54 pm 12:54 Sunny 92 33.3 66 18.9 43 43 WNW 8 13 29.78 1008 9 14.48406 0 0
1:54 pm 13:54 Sunny 95 35 66 18.9 39 39 W 13 20 29.75 1007 9 14.48406 0 0
2:54 pm 14:54 Partly Cloudy with Light Rain 91 32.8 65 18.3 42 42 NW 14 22 29.74 1007 10 16.0934 0.001 0.001
3:10 pm 15:10 Mostly Cloudy with Light Rain 89 31.7 69 20.6 52 52 N 16 26 29.72 1006 9 14.48406 0.001 0.001
3:54 pm 15:54 Sunny 92 33.3 64 17.8 40 40 NNW 14 22 29.76 1008 9 14.48406 0.001 0.001
4:54 pm 16:54 Mostly Sunny 93 33.9 65 18.3 40 40 N 13 20 29.77 1008 9 14.48406 0 0
5:54 pm 17:54 Partly Cloudy 91 32.8 64 17.8 41 41 N 16 26 29.76 1008 9 14.48406 0 0
6:54 pm 18:54 Sunny 87 30.6 61 16.1 42 42 N 15 24 29.79 1009 9 14.48406 0 0
7:54 pm 19:54 Sunny 82 27.8 63 17.2 53 53 N 13 20 29.82 1010 9 14.48406 0 0
8:54 pm 20:54 Mostly Clear 79 26.1 62 16.7 56 56 N 13 20 29.86 1011 10 16.0934 0 0
9:54 pm 21:54 Cloudy 78 25.6 62 16.7 58 58 N 13 20 29.89 1012 10 16.0934 0 0
10:54 pm 22:54 Clear 75 23.9 62 16.7 64 64 N 9 15 29.9 1013 10 16.0934 0 0
11:54 pm 23:54 Clear 72 22.2 62 16.7 71 71 N 9 15 29.9 1013 10 16.0934 0 0

Powered by AerisWeather